TimeCST,TemperatureF,Dew PointF,Humidity,Sea Level PressureIn,VisibilityMPH,Wind Direction,Wind SpeedMPH,Gust SpeedMPH,PrecipitationIn,Events,Conditions,WindDirDegrees,DateUTC
12:53 AM,-0.0,-5.1,79,30.26,10.0,WSW,8.1,-,N/A,,Clear,240,2013-01-01 06:53:00
1:53 AM,1.0,-4.0,79,30.26,10.0,WSW,8.1,-,N/A,,Clear,250,2013-01-01 07:53:00
2:53 AM,-0.0,-4.0,83,30.26,10.0,WSW,8.1,-,N/A,,Clear,250,2013-01-01 08:53:00
3:53 AM,1.0,-4.0,79,30.25,10.0,WSW,9.2,-,N/A,,Clear,240,2013-01-01 09:53:00
4:53 AM,-0.9,-6.0,79,30.27,10.0,WSW,8.1,-,N/A,,Clear,240,2013-01-01 10:53:00
5:53 AM,-2.0,-7.1,79,30.27,10.0,WSW,8.1,-,N/A,,Clear,240,2013-01-01 11:53:00
6:53 AM,-2.9,-8.0,79,30.27,10.0,WSW,8.1,-,N/A,,Clear,240,2013-01-01 12:53:00
7:53 AM,-4.0,-9.0,79,30.27,10.0,SW,6.9,-,N/A,,Clear,230,2013-01-01 13:53:00
8:53 AM,-0.9,-7.1,75,30.25,10.0,WSW,8.1,-,N/A,,Clear,240,2013-01-01 14:53:00
9:53 AM,3.0,-4.0,73,30.25,10.0,WSW,8.1,-,N/A,,Clear,240,2013-01-01 15:53:00
10:53 AM,6.1,-2.9,67,30.22,10.0,WSW,13.8,-,N/A,,Clear,250,2013-01-01 16:53:00
11:53 AM,9.0,-2.0,61,30.19,10.0,WSW,11.5,-,N/A,,Clear,250,2013-01-01 17:53:00
12:53 PM,12.0,-0.9,56,30.14,10.0,WSW,12.7,-,N/A,,Clear,240,2013-01-01 18:53:00
1:53 PM,14.0,-0.9,52,30.12,10.0,WSW,8.1,16.1,N/A,,Clear,240,2013-01-01 19:53:00
2:53 PM,14.0,-0.0,54,30.11,10.0,WSW,9.2,20.7,N/A,,Clear,240,2013-01-01 20:53:00
3:53 PM,12.9,3.0,65,30.12,10.0,SW,8.1,-,N/A,,Mostly Cloudy,220,2013-01-01 21:53:00
4:53 PM,14.0,6.1,71,30.11,10.0,SW,13.8,20.7,N/A,,Overcast,230,2013-01-01 22:53:00
5:53 PM,14.0,8.1,77,30.11,10.0,WSW,10.4,19.6,N/A,,Overcast,250,2013-01-01 23:53:00
6:07 PM,14.0,8.6,79,30.05,10.0,WSW,11.5,-,N/A,,Overcast,240,2013-01-02 00:07:00
6:53 PM,14.0,8.1,77,30.11,10.0,WSW,6.9,-,N/A,,Overcast,240,2013-01-02 00:53:00
7:53 PM,14.0,7.0,74,30.11,10.0,WSW,6.9,-,N/A,,Overcast,240,2013-01-02 01:53:00
8:42 PM,14.0,6.8,73,30.03,10.0,SW,8.1,-,N/A,,Overcast,230,2013-01-02 02:42:00
8:53 PM,14.0,8.1,77,30.09,10.0,SW,9.2,-,N/A,,Overcast,230,2013-01-02 02:53:00
9:53 PM,14.0,8.1,77,30.08,10.0,SW,8.1,-,N/A,,Overcast,230,2013-01-02 03:53:00
10:53 PM,15.1,9.0,77,30.07,10.0,WSW,5.8,-,N/A,,Overcast,240,2013-01-02 04:53:00
11:53 PM,16.0,10.0,77,30.06,10.0,SW,5.8,-,N/A,,Overcast,230,2013-01-02 05:53:00